Location: Newark
(34.9500°N, 139.9667°E)
Time: 23:27:04
(UTC+00:00)

Vanguard 2 Rocket - Pass Details

Date: 08 December 2019
Orbit: 554 x 3326 km, 32.9° (Epoch: 18 January)

Event Time Altitude Azimuth Distance (km) Brightness Sun altitude
Rises 09:23:55 0° 245° (WSW) 6,400 12.6 -23.0°
Reaches altitude 10° 09:28:50 10° 243° (WSW) 4,976 11.6 -24.0°
Maximum altitude 09:41:30 63° 167° (SSE) 1,656 8.0 -26.6°
Enters shadow 09:43:52 47° 112° (ESE) 1,717 7.8 -27.0°
Drops below altitude 10° 09:48:30 10° 87° (E) 2,858 - -28.0°
Sets 09:50:36 0° 84° (E) 3,573 - -28.4°
